Location: Austin
(30.3000°N, 97.7500°W)
Time: 11:18:38
(UTC-05:00)

Meteor 1-11 Rocket - Pass Details

Date: 03 April 2024
Orbit: 830 x 916 km, 81.2° (Epoch: 21 April)

Event Time Altitude Azimuth Distance (km) Brightness Sun altitude
Rises 05:59:46 0° 350° (N) 3,433 7.0 -17.1°
Reaches altitude 10° 06:02:13 10° 348° (NNW) 2,482 6.2 -16.6°
Maximum altitude 06:07:48 74° 265° (W) 873 3.6 -15.5°
Drops below altitude 10° 06:13:17 10° 180° (S) 2,431 5.9 -14.3°
Sets 06:15:40 0° 179° (S) 3,357 6.7 -13.8°
